| time (UTC) | temp C | wind direction | speed KPH | gust KPH | rain 1hr cm | rain 24hr cm | rain mn cm | humidity % | barometer mb |
| 20260505183939 | 19 | 239 | 9.7 | 16.1 | 0.00 | 0.00 | 0.00 | 63 | 1003.9 |
| 20260505183437 | 20 | 336 | 8.0 | 25.7 | 0.00 | 0.00 | 0.00 | 62 | 1004.0 |
| 20260505182933 | 20 | 215 | 3.2 | 17.7 | 0.00 | 0.00 | 0.00 | 62 | 1004.1 |
| 20260505182431 | 20 | 65 | 9.7 | 19.3 | 0.00 | 0.00 | 0.00 | 63 | 1004.1 |
| 20260505181926 | 19 | 135 | 8.0 | 25.7 | 0.00 | 0.00 | 0.00 | 62 | 1004.0 |
| 20260505181424 | 19 | 183 | 3.2 | 33.8 | 0.00 | 0.00 | 0.00 | 63 | 1004.3 |
| 20260505180921 | 19 | 215 | 4.8 | 24.1 | 0.00 | 0.00 | 0.00 | 63 | 1004.5 |
| 20260505180417 | 20 | 136 | 11.3 | 17.7 | 0.00 | 0.00 | 0.00 | 60 | 1004.3 |
| 20260505175914 | 20 | 213 | 4.8 | 14.5 | 0.00 | 0.00 | 0.00 | 58 | 1004.6 |
| 20260505175410 | 20 | 328 | 8.0 | 11.3 | 0.00 | 0.00 | 0.00 | 58 | 1004.6 |
| 20260505174906 | 20 | 102 | 0.0 | 22.5 | 0.00 | 0.00 | 0.00 | 61 | 1004.6 |
| 20260505174404 | 20 | 316 | 20.9 | 20.9 | 0.00 | 0.00 | 0.00 | 61 | 1004.8 |
| 20260505173900 | 21 | 44 | 3.2 | 19.3 | 0.00 | 0.00 | 0.00 | 57 | 1004.6 |
| 20260505173356 | 20 | 49 | 3.2 | 17.7 | 0.00 | 0.00 | 0.00 | 58 | 1004.4 |
| 20260505172854 | 20 | 278 | 8.0 | 22.5 | 0.00 | 0.00 | 0.00 | 58 | 1004.5 |
| 20260505172352 | 20 | 246 | 11.3 | 19.3 | 0.00 | 0.00 | 0.00 | 59 | 1004.7 |
| 20260505171851 | 20 | 271 | 6.4 | 22.5 | 0.00 | 0.00 | 0.00 | 59 | 1004.9 |
| 20260505171348 | 20 | 288 | 11.3 | 27.4 | 0.00 | 0.00 | 0.00 | 58 | 1004.8 |
| 20260505170844 | 20 | 267 | 6.4 | 16.1 | 0.00 | 0.00 | 0.00 | 62 | 1005.1 |
| 20260505170342 | 20 | 195 | 11.3 | 22.5 | 0.00 | 0.00 | 0.00 | 60 | 1004.9 |
| 20260505165837 | 19 | 0 | 6.4 | 29.0 | 0.00 | 0.00 | 0.00 | 61 | 1005.2 |
| 20260505165333 | 19 | 250 | 6.4 | 19.3 | 0.00 | 0.00 | 0.00 | 63 | 1005.1 |
| 20260505164829 | 18 | 86 | 3.2 | 17.7 | 0.00 | 0.00 | 0.00 | 63 | 1005.0 |
| 20260505164325 | 18 | 173 | 3.2 | 20.9 | 0.00 | 0.00 | 0.00 | 62 | 1005.4 |
| 20260505163824 | 18 | 131 | 4.8 | 14.5 | 0.00 | 0.00 | 0.00 | 63 | 1005.2 |
| 20260505163322 | 17 | 257 | 29.0 | 29.0 | 0.00 | 0.00 | 0.00 | 66 | 1005.3 |
| 20260505162820 | 17 | 113 | 11.3 | 16.1 | 0.00 | 0.00 | 0.00 | 65 | 1005.9 |
| 20260505162316 | 16 | 315 | 8.0 | 11.3 | 0.00 | 0.00 | 0.00 | 68 | 1006.1 |
| 20260505161813 | 16 | 175 | 6.4 | 14.5 | 0.00 | 0.00 | 0.00 | 70 | 1006.1 |
| 20260505161311 | 16 | 138 | 4.8 | 12.9 | 0.00 | 0.00 | 0.00 | 70 | 1006.5 |
| 20260505160808 | 16 | 202 | 0.0 | 16.1 | 0.00 | 0.00 | 0.00 | 72 | 1006.7 |
| 20260505160306 | 16 | 317 | 3.2 | 8.0 | 0.00 | 0.00 | 0.00 | 70 | 1006.4 |
| 20260505153244 | 20 | 273 | 6.4 | 8.0 | 0.00 | 0.00 | 0.00 | 58 | 1005.4 |
| 20260505152741 | 20 | 168 | 4.8 | 11.3 | 0.00 | 0.00 | 0.00 | 60 | 1005.5 |
| 20260505152237 | 20 | 175 | 6.4 | 19.3 | 0.00 | 0.00 | 0.00 | 57 | 1005.8 |
| 20260505151732 | 20 | 317 | 6.4 | 17.7 | 0.00 | 0.00 | 0.00 | 56 | 1005.8 |
| 20260505151230 | 18 | 272 | 6.4 | 24.1 | 0.00 | 0.00 | 0.00 | 60 | 1005.7 |
| 20260505150726 | 17 | 173 | 12.9 | 30.6 | 0.00 | 0.00 | 0.00 | 62 | 1005.7 |
| 20260505150223 | 18 | 186 | 6.4 | 16.1 | 0.00 | 0.00 | 0.00 | 64 | 1006.0 |
| 20260505140651 | 17 | 246 | 4.8 | 16.1 | 0.00 | 0.00 | 0.00 | 62 | 1006.0 |
| 20260505140148 | 17 | 272 | 6.4 | 38.6 | 0.00 | 0.00 | 0.00 | 64 | 1006.2 |
| 20260505130112 | 18 | 298 | 11.3 | 19.3 | 0.00 | 0.00 | 0.00 | 56 | 1006.2 |
| 20260505124601 | 17 | 268 | 4.8 | 20.9 | 0.00 | 0.00 | 0.00 | 58 | 1006.4 |
| 20260505124058 | 17 | 258 | 9.7 | 11.3 | 0.00 | 0.00 | 0.00 | 56 | 1006.2 |
| 20260505123554 | 17 | 233 | 11.3 | 16.1 | 0.00 | 0.00 | 0.00 | 57 | 1006.4 |
| 20260505123050 | 17 | 251 | 3.2 | 16.1 | 0.00 | 0.00 | 0.00 | 57 | 1006.5 |
| 20260505122547 | 17 | 29 | 12.9 | 20.9 | 0.00 | 0.00 | 0.00 | 57 | 1006.4 |
| 20260505122045 | 17 | 162 | 11.3 | 25.7 | 0.00 | 0.00 | 0.00 | 57 | 1006.3 |
| 20260505121541 | 16 | 338 | 6.4 | 17.7 | 0.00 | 0.00 | 0.00 | 57 | 1006.5 |
| 20260505121038 | 16 | 238 | 14.5 | 17.7 | 0.00 | 0.00 | 0.00 | 58 | 1006.6 |
| 20260505120534 | 16 | 141 | 11.3 | 25.7 | 0.00 | 0.00 | 0.00 | 57 | 1006.6 |
| 20260505120030 | 16 | 309 | 6.4 | 19.3 | 0.00 | 0.00 | 0.00 | 58 | 1006.6 |
| 20260505115524 | 16 | 202 | 1.6 | 14.5 | 0.00 | 0.00 | 0.00 | 60 | 1006.8 |
| 20260505115022 | 16 | 186 | 4.8 | 17.7 | 0.00 | 0.00 | 0.00 | 59 | 1006.9 |
| 20260505114519 | 16 | 237 | 9.7 | 22.5 | 0.00 | 0.00 | 0.00 | 59 | 1006.8 |
| 20260505114015 | 16 | 207 | 6.4 | 20.9 | 0.00 | 0.00 | 0.00 | 57 | 1006.7 |
| 20260505113512 | 16 | 260 | 3.2 | 12.9 | 0.00 | 0.00 | 0.00 | 57 | 1006.6 |
| 20260505113009 | 16 | 281 | 9.7 | 20.9 | 0.00 | 0.00 | 0.00 | 58 | 1006.6 |
| 20260505112505 | 16 | 304 | 0.0 | 14.5 | 0.00 | 0.00 | 0.00 | 57 | 1006.7 |
| 20260505112003 | 16 | 299 | 1.6 | 16.1 | 0.00 | 0.00 | 0.00 | 57 | 1006.7 |
| 20260505111456 | 16 | 96 | 4.8 | 9.7 | 0.00 | 0.00 | 0.00 | 57 | 1006.4 |
| 20260505110953 | 16 | 159 | 4.8 | 20.9 | 0.00 | 0.00 | 0.00 | 57 | 1006.6 |
| 20260505110449 | 16 | 336 | 6.4 | 14.5 | 0.00 | 0.00 | 0.00 | 58 | 1006.4 |
| 20260505101920 | 13 | 188 | 6.4 | 14.5 | 0.00 | 0.00 | 0.00 | 66 | 1006.6 |
| 20260505101415 | 13 | 122 | 6.4 | 8.0 | 0.00 | 0.00 | 0.00 | 70 | 1006.6 |
| 20260505100911 | 13 | 245 | 3.2 | 6.4 | 0.00 | 0.00 | 0.00 | 70 | 1006.4 |
| 20260505100408 | 13 | 133 | 4.8 | 14.5 | 0.00 | 0.00 | 0.00 | 69 | 1006.4 |
| 20260505095903 | 12 | 134 | 4.8 | 6.4 | 0.00 | 0.00 | 0.00 | 72 | 1006.5 |
| 20260505095401 | 13 | 129 | 3.2 | 6.4 | 0.00 | 0.00 | 0.00 | 70 | 1006.4 |
| 20260505094857 | 13 | 118 | 3.2 | 14.5 | 0.00 | 0.00 | 0.00 | 68 | 1006.2 |
| 20260505094354 | 12 | 159 | 6.4 | 9.7 | 0.00 | 0.00 | 0.00 | 72 | 1006.4 |
| 20260505093849 | 12 | 165 | 3.2 | 8.0 | 0.00 | 0.00 | 0.00 | 73 | 1006.4 |
| 20260505093347 | 12 | 177 | 3.2 | 8.0 | 0.00 | 0.00 | 0.00 | 71 | 1006.4 |
| 20260505092844 | 12 | 119 | 0.0 | 4.8 | 0.00 | 0.00 | 0.00 | 73 | 1006.4 |
| 20260505092343 | 12 | 161 | 3.2 | 6.4 | 0.00 | 0.00 | 0.00 | 73 | 1006.4 |
| 20260505091839 | 12 | 143 | 3.2 | 9.7 | 0.00 | 0.00 | 0.00 | 70 | 1006.4 |
| 20260505091337 | 12 | 155 | 4.8 | 6.4 | 0.00 | 0.00 | 0.00 | 73 | 1006.4 |
| 20260505090835 | 12 | 149 | 4.8 | 6.4 | 0.00 | 0.00 | 0.00 | 70 | 1006.4 |
| 20260505090333 | 12 | 173 | 4.8 | 14.5 | 0.00 | 0.00 | 0.00 | 69 | 1006.2 |
| 20260505085830 | 12 | 99 | 4.8 | 8.0 | 0.00 | 0.00 | 0.00 | 68 | 1006.5 |
| 20260505085328 | 13 | 149 | 6.4 | 8.0 | 0.00 | 0.00 | 0.00 | 66 | 1006.4 |
| 20260505084826 | 13 | 166 | 4.8 | 12.9 | 0.00 | 0.00 | 0.00 | 65 | 1006.4 |
| 20260505084324 | 14 | 34 | 0.0 | 17.7 | 0.00 | 0.00 | 0.00 | 63 | 1006.2 |
| 20260505083821 | 13 | 189 | 6.4 | 14.5 | 0.00 | 0.00 | 0.00 | 64 | 1006.2 |
| 20260505083318 | 13 | 224 | 3.2 | 8.0 | 0.00 | 0.00 | 0.00 | 63 | 1006.3 |
| 20260505082815 | 14 | 200 | 6.4 | 19.3 | 0.00 | 0.00 | 0.00 | 63 | 1006.1 |
| 20260505082311 | 13 | 160 | 8.0 | 9.7 | 0.00 | 0.00 | 0.00 | 64 | 1006.3 |
| 20260505081807 | 13 | 211 | 6.4 | 14.5 | 0.00 | 0.00 | 0.00 | 63 | 1006.5 |
| 20260505081304 | 13 | 167 | 4.8 | 20.9 | 0.00 | 0.00 | 0.00 | 65 | 1006.3 |
| 20260505080801 | 13 | 191 | 6.4 | 12.9 | 0.00 | 0.00 | 0.00 | 63 | 1006.5 |
| 20260505080257 | 13 | 218 | 3.2 | 17.7 | 0.00 | 0.00 | 0.00 | 64 | 1006.4 |
| 20260505075752 | 13 | 212 | 4.8 | 20.9 | 0.00 | 0.00 | 0.00 | 63 | 1006.5 |
| 20260505075250 | 14 | 131 | 17.7 | 17.7 | 0.00 | 0.00 | 0.00 | 63 | 1006.4 |
| 20260505074747 | 14 | 348 | 11.3 | 16.1 | 0.00 | 0.00 | 0.00 | 62 | 1006.4 |
| 20260505074244 | 13 | 156 | 11.3 | 12.9 | 0.00 | 0.00 | 0.00 | 63 | 1006.4 |
| 20260505073742 | 13 | 147 | 6.4 | 11.3 | 0.00 | 0.00 | 0.00 | 65 | 1006.1 |
| 20260505073239 | 13 | 258 | 4.8 | 9.7 | 0.00 | 0.00 | 0.00 | 65 | 1006.4 |
| 20260505072736 | 13 | 198 | 6.4 | 29.0 | 0.00 | 0.00 | 0.00 | 66 | 1006.6 |
| 20260505072232 | 13 | 189 | 4.8 | 9.7 | 0.00 | 0.00 | 0.00 | 65 | 1006.5 |
| 20260505071727 | 13 | 228 | 4.8 | 17.7 | 0.00 | 0.00 | 0.00 | 66 | 1006.4 |
| 20260505071225 | 13 | 190 | 3.2 | 11.3 | 0.00 | 0.00 | 0.00 | 66 | 1006.5 |
| 20260505070722 | 13 | 163 | 6.4 | 9.7 | 0.00 | 0.00 | 0.00 | 69 | 1006.6 |
| 20260505070218 | 13 | 143 | 8.0 | 22.5 | 0.00 | 0.00 | 0.00 | 66 | 1006.6 |
| 20260505065714 | 13 | 86 | 3.2 | 6.4 | 0.00 | 0.00 | 0.00 | 67 | 1006.3 |
| 20260505065211 | 13 | 38 | 4.8 | 9.7 | 0.00 | 0.00 | 0.00 | 66 | 1006.4 |
| 20260505064708 | 13 | 301 | 3.2 | 9.7 | 0.00 | 0.00 | 0.00 | 67 | 1006.3 |
| 20260505064206 | 13 | 196 | 6.4 | 6.4 | 0.00 | 0.00 | 0.00 | 68 | 1006.2 |
| 20260505063704 | 13 | 143 | 1.6 | 6.4 | 0.00 | 0.00 | 0.00 | 68 | 1006.2 |
| 20260505063159 | 13 | 151 | 3.2 | 14.5 | 0.00 | 0.00 | 0.00 | 67 | 1006.2 |
| 20260505062655 | 13 | 203 | 8.0 | 11.3 | 0.00 | 0.00 | 0.00 | 66 | 1006.4 |
| 20260505062154 | 13 | 130 | 4.8 | 11.3 | 0.00 | 0.00 | 0.00 | 64 | 1006.2 |
| 20260505061650 | 14 | 210 | 0.0 | 17.7 | 0.00 | 0.00 | 0.00 | 64 | 1006.2 |
| 20260505061148 | 13 | 188 | 4.8 | 12.9 | 0.00 | 0.00 | 0.00 | 65 | 1006.1 |
| 20260505060645 | 14 | 214 | 1.6 | 19.3 | 0.00 | 0.00 | 0.00 | 65 | 1006.3 |
| 20260505060142 | 13 | 164 | 3.2 | 16.1 | 0.00 | 0.00 | 0.00 | 67 | 1006.4 |
| 20260505055637 | 13 | 147 | 1.6 | 16.1 | 0.00 | 0.00 | 0.00 | 64 | 1006.3 |
| 20260505055134 | 13 | 136 | 8.0 | 17.7 | 0.00 | 0.00 | 0.00 | 65 | 1006.3 |
| 20260505054632 | 13 | 144 | 4.8 | 8.0 | 0.00 | 0.00 | 0.00 | 68 | 1006.4 |
| 20260505054130 | 13 | 170 | 4.8 | 9.7 | 0.00 | 0.00 | 0.00 | 65 | 1006.1 |
| 20260505053627 | 13 | 174 | 4.8 | 8.0 | 0.00 | 0.00 | 0.00 | 66 | 1006.1 |
| 20260505053123 | 13 | 147 | 6.4 | 11.3 | 0.00 | 0.00 | 0.00 | 65 | 1006.3 |
| 20260505052620 | 13 | 171 | 4.8 | 8.0 | 0.00 | 0.00 | 0.00 | 67 | 1006.3 |
| 20260505052118 | 13 | 153 | 4.8 | 8.0 | 0.00 | 0.00 | 0.00 | 66 | 1006.1 |
| 20260505051614 | 13 | 180 | 8.0 | 14.5 | 0.00 | 0.00 | 0.00 | 65 | 1006.1 |
| 20260505051113 | 13 | 191 | 6.4 | 11.3 | 0.00 | 0.00 | 0.00 | 64 | 1006.0 |
| 20260505050610 | 13 | 94 | 4.8 | 9.7 | 0.00 | 0.00 | 0.00 | 66 | 1006.2 |
| 20260505050108 | 13 | 123 | 1.6 | 4.8 | 0.00 | 0.00 | 0.00 | 70 | 1005.9 |
| 20260505041538 | 13 | 327 | 3.2 | 12.9 | 0.00 | 0.00 | 0.00 | 66 | 1006.0 |
| 20260505041036 | 13 | 150 | 16.1 | 19.3 | 0.00 | 0.00 | 0.00 | 66 | 1005.7 |
| 20260505040532 | 13 | 98 | 6.4 | 16.1 | 0.00 | 0.00 | 0.00 | 68 | 1005.9 |
| 20260505040030 | 12 | 148 | 4.8 | 9.7 | 0.00 | 0.03 | 0.03 | 69 | 1005.8 |
| 20260505035525 | 13 | 248 | 4.8 | 14.5 | 0.00 | 0.03 | 0.03 | 68 | 1005.4 |
| 20260505035022 | 13 | 192 | 1.6 | 17.7 | 0.00 | 0.03 | 0.03 | 71 | 1005.7 |
| 20260505034519 | 12 | 144 | 8.0 | 11.3 | 0.00 | 0.03 | 0.03 | 71 | 1005.5 |
| 20260505034016 | 12 | 242 | 0.0 | 6.4 | 0.00 | 0.03 | 0.03 | 71 | 1005.9 |
| 20260505033513 | 12 | 188 | 1.6 | 9.7 | 0.00 | 0.03 | 0.03 | 71 | 1005.7 |
| 20260505033011 | 12 | 240 | 4.8 | 9.7 | 0.00 | 0.03 | 0.03 | 71 | 1005.7 |
| 20260505032508 | 11 | 70 | 1.6 | 11.3 | 0.00 | 0.03 | 0.03 | 77 | 1005.5 |
| 20260505032005 | 10 | 130 | 0.0 | 9.7 | 0.00 | 0.03 | 0.03 | 85 | 1005.7 |
| 20260505031502 | 8 | 180 | 3.2 | 17.7 | 0.00 | 0.03 | 0.03 | 88 | 1005.4 |
| 20260505030958 | 8 | 34 | 0.0 | 4.8 | 0.00 | 0.03 | 0.03 | 91 | 1005.5 |
| 20260505030455 | 8 | 177 | 4.8 | 4.8 | 0.00 | 0.03 | 0.03 | 90 | 1005.4 |
| 20260505025950 | 8 | 112 | 1.6 | 4.8 | 0.00 | 0.03 | 0.03 | 86 | 1005.4 |
| 20260505025447 | 8 | 63 | 0.0 | 3.2 | 0.00 | 0.03 | 0.03 | 88 | 1005.7 |
| 20260505024946 | 8 | 98 | 0.0 | 3.2 | 0.00 | 0.03 | 0.03 | 90 | 1005.9 |
| 20260505024443 | 7 | 126 | 0.0 | 3.2 | 0.00 | 0.03 | 0.03 | 92 | 1005.9 |
| 20260505023940 | 7 | 60 | 0.0 | 3.2 | 0.00 | 0.03 | 0.03 | 94 | 1005.9 |
| 20260505023437 | 7 | 160 | 0.0 | 3.2 | 0.00 | 0.03 | 0.03 | 95 | 1005.9 |
| 20260505022934 | 7 | 135 | 3.2 | 4.8 | 0.00 | 0.03 | 0.03 | 95 | 1005.5 |
| 20260505022432 | 7 | 140 | 3.2 | 3.2 | 0.00 | 0.03 | 0.03 | 95 | 1005.8 |
| 20260505021929 | 7 | 35 | 1.6 | 4.8 | 0.00 | 0.03 | 0.03 | 95 | 1005.7 |
| 20260505021425 | 7 | 51 | 3.2 | 4.8 | 0.00 | 0.03 | 0.03 | 94 | 1005.7 |
| 20260505020921 | 7 | 76 | 0.0 | 8.0 | 0.00 | 0.03 | 0.03 | 94 | 1005.4 |
| 20260505020416 | 7 | 124 | 0.0 | 4.8 | 0.00 | 0.03 | 0.03 | 95 | 1005.4 |
| 20260505015914 | 7 | 0 | 0.0 | 3.2 | 0.00 | 0.03 | 0.03 | 95 | 1005.5 |
| 20260505015411 | 7 | 81 | 0.0 | 4.8 | 0.00 | 0.03 | 0.03 | 94 | 1005.5 |
| 20260505014908 | 7 | 202 | 0.0 | 8.0 | 0.00 | 0.03 | 0.03 | 94 | 1005.4 |
| 20260505014405 | 7 | 60 | 4.8 | 6.4 | 0.00 | 0.03 | 0.03 | 94 | 1005.3 |
| 20260505013902 | 7 | 342 | 1.6 | 4.8 | 0.00 | 0.03 | 0.03 | 93 | 1005.4 |
| 20260505013358 | 7 | 80 | 4.8 | 8.0 | 0.00 | 0.03 | 0.03 | 93 | 1005.5 |
| 20260505012857 | 8 | 80 | 1.6 | 4.8 | 0.00 | 0.03 | 0.03 | 92 | 1005.3 |
| 20260505012355 | 8 | 44 | 3.2 | 4.8 | 0.00 | 0.03 | 0.03 | 92 | 1005.3 |
| 20260505011850 | 8 | 73 | 0.0 | 4.8 | 0.00 | 0.03 | 0.03 | 90 | 1005.1 |
| 20260505011347 | 8 | 87 | 0.0 | 3.2 | 0.00 | 0.03 | 0.03 | 90 | 1005.4 |
| 20260505010843 | 8 | 28 | 3.2 | 4.8 | 0.00 | 0.03 | 0.03 | 90 | 1005.4 |
| 20260505010339 | 8 | 44 | 1.6 | 4.8 | 0.00 | 0.03 | 0.03 | 89 | 1005.2 |
| 20260505005836 | 8 | 114 | 1.6 | 4.8 | 0.00 | 0.03 | 0.03 | 89 | 1005.1 |
| 20260505005333 | 9 | 64 | 3.2 | 3.2 | 0.00 | 0.03 | 0.03 | 89 | 1005.2 |
| 20260505004830 | 9 | 60 | 3.2 | 4.8 | 0.00 | 0.03 | 0.03 | 89 | 1005.1 |
| 20260505004326 | 9 | 116 | 1.6 | 4.8 | 0.00 | 0.03 | 0.03 | 88 | 1005.0 |
| 20260505003824 | 10 | 304 | 0.0 | 4.8 | 0.00 | 0.03 | 0.03 | 87 | 1004.9 |
| 20260505003321 | 10 | 89 | 0.0 | 4.8 | 0.00 | 0.03 | 0.03 | 85 | 1004.9 |
| 20260505002817 | 10 | 62 | 1.6 | 4.8 | 0.00 | 0.03 | 0.03 | 85 | 1004.8 |
| 20260505002314 | 10 | 45 | 1.6 | 3.2 | 0.00 | 0.03 | 0.03 | 84 | 1004.6 |
| 20260505001812 | 11 | 41 | 0.0 | 6.4 | 0.00 | 0.03 | 0.03 | 81 | 1004.8 |
| 20260505001309 | 11 | 94 | 3.2 | 6.4 | 0.00 | 0.03 | 0.03 | 81 | 1004.8 |
| 20260505000806 | 11 | 145 | 4.8 | 8.0 | 0.00 | 0.03 | 0.03 | 79 | 1004.5 |
| 20260505000304 | 11 | 133 | 3.2 | 6.4 | 0.00 | 0.03 | 0.03 | 80 | 1004.6 |
| 20260504235800 | 11 | 78 | 4.8 | 6.4 | 0.00 | 0.03 | 0.03 | 79 | 1004.6 |
| 20260504235257 | 11 | 136 | 4.8 | 4.8 | 0.00 | 0.03 | 0.03 | 79 | 1004.5 |
| 20260504234754 | 12 | 135 | 3.2 | 8.0 | 0.00 | 0.03 | 0.03 | 75 | 1004.4 |
| 20260504234252 | 12 | 132 | 3.2 | 8.0 | 0.00 | 0.03 | 0.03 | 75 | 1004.2 |
| 20260504233748 | 12 | 164 | 6.4 | 8.0 | 0.00 | 0.03 | 0.03 | 76 | 1004.3 |
| 20260504233243 | 12 | 163 | 4.8 | 8.0 | 0.00 | 0.03 | 0.03 | 75 | 1004.2 |
| 20260504232740 | 13 | 134 | 4.8 | 6.4 | 0.00 | 0.03 | 0.03 | 72 | 1004.2 |
| 20260504232237 | 13 | 157 | 4.8 | 8.0 | 0.00 | 0.03 | 0.03 | 71 | 1004.0 |
| 20260504231735 | 13 | 159 | 4.8 | 6.4 | 0.00 | 0.03 | 0.03 | 73 | 1004.2 |
| 20260504231231 | 14 | 154 | 4.8 | 6.4 | 0.00 | 0.03 | 0.03 | 70 | 1003.9 |
| 20260504230727 | 15 | 121 | 3.2 | 4.8 | 0.00 | 0.03 | 0.03 | 59 | 1004.0 |
| 20260504230226 | 16 | 142 | 3.2 | 4.8 | 0.00 | 0.03 | 0.03 | 59 | 1003.8 |
| 20260504225724 | 16 | 137 | 1.6 | 3.2 | 0.00 | 0.03 | 0.03 | 57 | 1003.7 |
| 20260504225220 | 16 | 147 | 1.6 | 4.8 | 0.00 | 0.03 | 0.03 | 56 | 1003.7 |
| 20260504224717 | 16 | 128 | 0.0 | 3.2 | 0.00 | 0.03 | 0.03 | 55 | 1003.6 |
| 20260504224214 | 16 | 82 | 0.0 | 3.2 | 0.00 | 0.03 | 0.03 | 55 | 1003.7 |
| 20260504223710 | 16 | 177 | 3.2 | 4.8 | 0.00 | 0.03 | 0.03 | 54 | 1003.6 |
| 20260504223206 | 16 | 128 | 1.6 | 6.4 | 0.00 | 0.03 | 0.03 | 54 | 1003.6 |
| 20260504222703 | 16 | 345 | 0.0 | 8.0 | 0.00 | 0.03 | 0.03 | 56 | 1003.6 |
| 20260504222200 | 16 | 120 | 0.0 | 4.8 | 0.00 | 0.03 | 0.03 | 55 | 1003.7 |
| 20260504221657 | 16 | 321 | 1.6 | 3.2 | 0.00 | 0.03 | 0.03 | 55 | 1003.6 |
| 20260504221155 | 16 | 345 | 3.2 | 8.0 | 0.00 | 0.03 | 0.03 | 55 | 1003.6 |
| 20260504220651 | 16 | 207 | 3.2 | 6.4 | 0.00 | 0.03 | 0.03 | 53 | 1003.5 |
| 20260504220149 | 16 | 149 | 6.4 | 11.3 | 0.00 | 0.03 | 0.03 | 53 | 1003.6 |
| 20260504215645 | 16 | 96 | 0.0 | 22.5 | 0.00 | 0.03 | 0.03 | 55 | 1003.8 |
| 20260504215142 | 16 | 349 | 9.7 | 11.3 | 0.00 | 0.03 | 0.03 | 54 | 1003.7 |
| 20260504214638 | 16 | 46 | 6.4 | 14.5 | 0.00 | 0.03 | 0.03 | 54 | 1003.6 |
| 20260504214134 | 16 | 277 | 3.2 | 14.5 | 0.00 | 0.03 | 0.03 | 53 | 1003.6 |
| 20260504213631 | 17 | 232 | 6.4 | 14.5 | 0.00 | 0.03 | 0.03 | 54 | 1003.6 |
| 20260504213128 | 16 | 14 | 6.4 | 14.5 | 0.00 | 0.03 | 0.03 | 53 | 1003.5 |
| 20260504212624 | 16 | 9 | 3.2 | 9.7 | 0.00 | 0.03 | 0.03 | 55 | 1003.5 |
| 20260504212121 | 16 | 5 | 12.9 | 12.9 | 0.00 | 0.03 | 0.03 | 54 | 1003.6 |
| 20260504211619 | 16 | 127 | 0.0 | 11.3 | 0.00 | 0.03 | 0.03 | 58 | 1003.6 |
| 20260504211115 | 17 | 31 | 6.4 | 11.3 | 0.00 | 0.03 | 0.03 | 56 | 1003.4 |
| 20260504210613 | 18 | 354 | 11.3 | 12.9 | 0.00 | 0.03 | 0.03 | 54 | 1003.2 |
| 20260504210109 | 17 | 176 | 6.4 | 9.7 | 0.00 | 0.03 | 0.03 | 57 | 1003.3 |
| 20260504205607 | 16 | 111 | 0.0 | 8.0 | 0.00 | 0.03 | 0.03 | 57 | 1003.5 |
| 20260504205104 | 16 | 161 | 3.2 | 8.0 | 0.00 | 0.03 | 0.03 | 58 | 1003.3 |
| 20260504204602 | 17 | 152 | 4.8 | 14.5 | 0.00 | 0.03 | 0.03 | 56 | 1003.4 |
| 20260504204101 | 17 | 191 | 4.8 | 12.9 | 0.00 | 0.03 | 0.03 | 55 | 1003.2 |
| 20260504203559 | 17 | 262 | 3.2 | 8.0 | 0.00 | 0.03 | 0.03 | 56 | 1003.2 |
| 20260504203056 | 17 | 190 | 6.4 | 17.7 | 0.00 | 0.03 | 0.03 | 56 | 1003.2 |
| 20260504202551 | 17 | 350 | 6.4 | 11.3 | 0.00 | 0.03 | 0.03 | 60 | 1003.1 |
| 20260504202048 | 17 | 150 | 4.8 | 11.3 | 0.00 | 0.03 | 0.03 | 60 | 1003.3 |
| 20260504201545 | 16 | 202 | 8.0 | 24.1 | 0.00 | 0.03 | 0.03 | 60 | 1003.4 |
| 20260504201043 | 16 | 212 | 3.2 | 14.5 | 0.00 | 0.03 | 0.03 | 60 | 1003.3 |
| 20260504200539 | 16 | 22 | 4.8 | 8.0 | 0.00 | 0.03 | 0.03 | 63 | 1003.6 |
| 20260504200036 | 16 | 152 | 4.8 | 17.7 | 0.00 | 0.03 | 0.03 | 61 | 1003.5 |
| 20260504195532 | 16 | 350 | 0.0 | 20.9 | 0.00 | 0.03 | 0.03 | 62 | 1003.4 |
| 20260504195029 | 16 | 245 | 3.2 | 12.9 | 0.00 | 0.03 | 0.03 | 59 | 1003.2 |
| 20260504194525 | 16 | 324 | 0.0 | 9.7 | 0.00 | 0.03 | 0.03 | 63 | 1003.5 |
| 20260504194021 | 16 | 221 | 6.4 | 14.5 | 0.00 | 0.03 | 0.03 | 64 | 1003.3 |
| 20260504193518 | 16 | 133 | 17.7 | 17.7 | 0.00 | 0.03 | 0.03 | 62 | 1003.5 |
| 20260504193017 | 15 | 3 | 3.2 | 17.7 | 0.00 | 0.03 | 0.03 | 63 | 1003.4 |
| 20260504192514 | 15 | 7 | 9.7 | 17.7 | 0.00 | 0.03 | 0.03 | 63 | 1003.4 |
| 20260504192013 | 15 | 251 | 1.6 | 11.3 | 0.00 | 0.03 | 0.03 | 68 | 1003.0 |
| 20260504191510 | 14 | 224 | 4.8 | 12.9 | 0.00 | 0.03 | 0.03 | 70 | 1003.3 |
| 20260504191006 | 14 | 150 | 0.0 | 16.1 | 0.00 | 0.03 | 0.03 | 71 | 1003.4 |
| 20260504190502 | 14 | 200 | 4.8 | 8.0 | 0.00 | 0.03 | 0.03 | 75 | 1003.6 |
| 20260504185958 | 13 | 199 | 0.0 | 9.7 | 0.00 | 0.03 | 0.03 | 75 | 1003.7 |
| 20260504185455 | 13 | 235 | 1.6 | 9.7 | 0.00 | 0.03 | 0.03 | 75 | 1003.9 |
| 20260504184952 | 13 | 280 | 3.2 | 14.5 | 0.00 | 0.03 | 0.03 | 76 | 1003.9 |
| 20260504184447 | 13 | 232 | 3.2 | 6.4 | 0.00 | 0.03 | 0.03 | 76 | 1004.0 |